Flag for Switzerland Weather past 2 weeks in Zug, Zug, Switzerland

Now
59 °F

Cool.


Feels Like: 59 °F
Forecast: 49 / 69 °F
Wind: 1 mph from South

Location: Zurich Town / Ville.

Current Time: Sep 30, 2014 at 11:41:57 PM

Latest Report: Sep 30, 2014 at 10:00 PM


Visibility: N/A

Pressure: 30.31 "Hg

Humidity: 95%

Dew point: 58 °F

Location of ZugLocation

Historic Weather in Zug — Graph

°F

Zug temperature yesterday

Maximum temperature yesterday: 72 °F (at 4:00 PM)
Minimum temperature yesterday: 53 °F (at 7:00 AM)
Average temperature yesterday: 61 °F

Past Weeks' High & Low Weather Summary

 TemperatureHumidityPressure
High73 °F (Sep 20, 3:00 PM)100% (Sep 16, 7:00 AM)30.35 "Hg (Sep 16, 7:00 AM)
Low41 °F (Sep 23, 6:00 AM)47% (Sep 23, 4:00 PM)29.81 "Hg (Sep 17, 5:00 PM)
Average58 °F83%30.10 "Hg
* Reported Sep 15 10:00 PM — Sep 30 10:00 PM, Zug, Weather by CustomWeather, © 2014

Note: Actual official high and low records may vary slightly from our data, if they occured in-between our weather recording intervals... More about our weather records

Advertising

Zug weather history for previous 24 hours

 ConditionsComfort  
Time TempWeatherWind HumidityBarometerVisibility
10:00 PM
Sep 30
59 °FCool.1 mph95%30.31 "HgN/A
9:00 PM59 °FCool.1 mph96%30.31 "HgN/A
8:00 PM60 °FPassing clouds.1 mph93%30.31 "HgN/A
7:00 PM60 °FCool.3 mph92%30.30 "HgN/A
6:00 PM60 °FCool.3 mph94%30.29 "HgN/A
5:00 PM61 °FCool.3 mph94%30.30 "HgN/A
4:00 PM62 °FCool.3 mph92%30.30 "HgN/A
3:00 PM62 °FCool.1 mph89%30.30 "HgN/A
2:00 PM62 °FCool.2 mph86%30.31 "HgN/A
1:00 PM62 °FCool.2 mph90%30.31 "HgN/A
12:00 PM61 °FCool.2 mph89%30.31 "HgN/A
11:00 AM62 °FCool.1 mph84%30.31 "HgN/A
10:00 AM60 °FCool.2 mph88%30.31 "HgN/A
9:00 AM60 °FCool.1 mph89%30.30 "HgN/A
8:00 AM59 °FPartly sunny.No wind89%30.30 "HgN/A
7:00 AM59 °FCool.1 mph89%30.29 "HgN/A
6:00 AM60 °FCool.1 mph86%30.29 "HgN/A
5:00 AM58 °FCool.No wind91%30.30 "HgN/A
4:00 AM58 °FCool.No wind90%30.30 "HgN/A
3:00 AM60 °FCool.1 mph85%30.29 "HgN/A
2:00 AM61 °FCool.2 mph87%30.29 "HgN/A
1:00 AM61 °FCool.No wind83%30.29 "HgN/A
12:00 AM61 °FCool.1 mph79%30.29 "HgN/A
11:00 PM
Sep 29
62 °FCool.1 mph79%30.29 "HgN/A
Weather by CustomWeather, © 2014

See weather overviewHow to use our weather pages